This is the latest recevied weather packets stored in our database for station/object W1SCW. If no packets are shown the sender has not sent any weather packets the latest 10 day(s).
| Time | Temp. | Humidity | Pressure | Rain* | Wind** | Luminosity | Snow |
|---|---|---|---|---|---|---|---|
| 1777301636 | 27.78° C | 84% | 1009.3 hPa | 0 mm | - | 288 W/m² | - |
| 1777301334 | 27.78° C | 84% | 1009.3 hPa | 0 mm | - | 276 W/m² | - |
| 1777301030 | 27.22° C | 85% | 1009.5 hPa | 0 mm | - | 290 W/m² | - |
| 1777300728 | 27.22° C | 85% | 1009.3 hPa | 0 mm | - | 201 W/m² | - |
| 1777300425 | 26.67° C | 86% | 1009.5 hPa | 0 mm | - | 272 W/m² | - |
| 1777300122 | 26.67° C | 86% | 1009.5 hPa | 0 mm | - | 233 W/m² | - |
| 1777299819 | 26.67° C | 87% | 1009.4 hPa | 0 mm | - | 185 W/m² | - |
| 1777299517 | 26.67° C | 87% | 1009.2 hPa | 0 mm | - | 124 W/m² | - |
| 1777299214 | 26.67° C | 87% | 1009.4 hPa | 0 mm | - | 109 W/m² | - |
| 1777298911 | 26.67° C | 87% | 1009.3 hPa | 0 mm | - | 131 W/m² | - |
| 1777298603 | 26.67° C | 87% | 1009.4 hPa | 0 mm | - | 107 W/m² | - |
| 1777298299 | 26.67° C | 87% | 1009.2 hPa | 0 mm | - | 170 W/m² | - |
| 1777297994 | 26.67° C | 87% | 1009.1 hPa | 0 mm | - | 147 W/m² | - |
| 1777297691 | 26.67° C | 87% | 1009 hPa | 0 mm | - | 211 W/m² | - |
| 1777297389 | 26.67° C | 87% | 1009 hPa | 0 mm | - | 239 W/m² | - |
| 1777297084 | 26.67° C | 89% | 1008.7 hPa | 0 mm | - | 211 W/m² | - |
| 1777296781 | 26.11° C | 89% | 1008.7 hPa | 0 mm | - | 183 W/m² | - |
| 1777296477 | 26.11° C | 90% | 1008.7 hPa | 0 mm | - | 221 W/m² | - |
| 1777296173 | 26.11° C | 91% | 1008.6 hPa | 0 mm | - | 189 W/m² | - |
| 1777295870 | 25.56° C | 91% | 1008.9 hPa | 0 mm | - | 104 W/m² | - |
| 1777295567 | 25.56° C | 92% | 1009 hPa | 0 mm | - | 91 W/m² | - |
| 1777295265 | 25.56° C | 92% | 1008.8 hPa | 0 mm | - | 45 W/m² | - |
| 1777294963 | 25.56° C | 92% | 1009.1 hPa | 0 mm | - | 55 W/m² | - |
| 1777294658 | 25.56° C | 92% | 1009 hPa | 0 mm | - | 56 W/m² | - |
| 1777294354 | 25.56° C | 92% | 1008.4 hPa | 0 mm | - | 82 W/m² | - |
* Rain latest hour (hover to see other rain measurements)
** Current wind speed in m/s (hover to see current wind gust speed)